Flag for Germany Weather for the Past 2 Weeks in Limburg an der Lahn, Hesse, Germany

Now
54 °F

Sunny.


Feels Like: 54 °F
Forecast: 39 / 64 °F
Wind: 2 mph from North

Location: Hessen

Current Time: May 4, 2016 at 5:47:14 PM

Latest Report: May 4, 2016 at 4:50 PM


Visibility: 10 mi

Pressure: 30.33 "Hg

Humidity: 35%

Dew Point: 27 °F

Location of Limburg an der LahnLocation

Historic Weather in Limburg an der Lahn — Graph

°F

Limburg an der Lahn Temperature Yesterday

Maximum temperature yesterday: 50 °F (at 5:20 PM)
Minimum temperature yesterday: 41 °F (at 1:20 PM)
Average temperature yesterday: 46 °F

High & Low Weather Summary for the Past Weeks

 TemperatureHumidityPressure
High63 °F (Apr 21, 5:20 PM)100% (Apr 23, 7:50 AM)30.42 "Hg (Apr 23, 7:50 AM)
Low30 °F (Apr 24, 7:50 AM)30% (Apr 21, 5:50 PM)29.47 "Hg (Apr 26, 7:50 AM)
Average44 °F69%30.00 "Hg
* Reported Apr 19 4:20 PM — May 4 4:20 PM, Limburg an der Lahn, Weather by CustomWeather, © 2016

Note: Actual official high and low records may vary slightly from our data, if they occured in-between our weather recording intervals... More about our weather records

Advertising

Limburg an der Lahn Weather History for the Previous 24 Hours

Scroll right to see more
 ConditionsComfort  
Time TempWeatherWind HumidityBarometerVisibility
4:20 PM
Wed, May 4
52 °FPassing clouds.7 mph38%30.33 "HgN/A
3:50 PM52 °FSunny.2 mph38%30.33 "Hg10 mi
3:20 PM50 °FSunny.5 mph40%30.33 "Hg10 mi
2:50 PM52 °FPassing clouds.5 mph41%30.33 "HgN/A
2:20 PM50 °FSunny.2 mph40%30.36 "Hg10 mi
1:50 PM48 °FPassing clouds.5 mph46%30.36 "HgN/A
12:50 PM48 °FPassing clouds.6 mph43%30.36 "HgN/A
12:20 PM50 °FPassing clouds.6 mph40%30.36 "HgN/A
11:50 AM48 °FPassing clouds.5 mph43%30.36 "HgN/A
11:20 AM46 °FPassing clouds.5 mph50%30.36 "HgN/A
10:50 AM46 °FPassing clouds.6 mph53%30.36 "HgN/A
9:50 AM43 °FPassing clouds.6 mph66%30.36 "HgN/A
9:20 AM45 °FSunny.2 mph71%30.36 "Hg10 mi
8:50 AM43 °FPassing clouds.7 mph76%30.36 "HgN/A
8:20 AM43 °FPassing clouds.5 mph71%30.36 "HgN/A
7:50 AM41 °FSunny.3 mph76%30.36 "Hg10 mi
7:20 AM39 °FSunny.No wind81%30.36 "Hg10 mi
8:50 PM
Tue, May 3
45 °FSunny.9 mph57%30.24 "Hg10 mi
8:20 PM48 °FSunny.13 mph54%30.21 "Hg10 mi
7:50 PM48 °FSunny.15 mph50%30.21 "Hg10 mi
7:20 PM48 °FPassing clouds.16 mph50%30.21 "HgN/A
6:50 PM48 °FPassing clouds.14 mph58%30.18 "HgN/A
6:20 PM48 °FScattered clouds.13 mph62%30.18 "HgN/A
5:50 PM48 °FScattered clouds.14 mph58%30.18 "HgN/A
5:20 PM50 °FScattered clouds.10 mph62%30.18 "HgN/A
Weather by CustomWeather, © 2016

See weather overviewHow to use our weather pages